Location: Asheville, NC
(35.6000°N, 82.5500°W)
Time: 01:27:55
(UTC-05:00)

HO-68 - Visible Passes

Search period start: 21 January 2018 00:00
Search period end: 31 January 2018 00:00
Orbit: 1192 x 1205 km, 100.1° (Epoch: 20 January)

Date Brightness Start Highest point End Pass type
(mag) Time Alt. Az. Time Alt. Az. Time Alt. Az.
21 Jan ? 07:01:08 10° NNE 07:07:59 47° E 07:14:48 10° S visible
21 Jan ? 19:13:27 10° S 19:20:25 55° WSW 19:27:25 10° NNW visible
22 Jan ? 06:44:32 10° NE 06:50:58 35° E 06:57:20 10° SSE visible
22 Jan ? 18:56:20 10° S 19:03:28 73° WSW 19:10:38 10° NNW visible
23 Jan ? 06:28:07 10° NE 06:33:54 26° E 06:39:39 10° SSE visible
23 Jan ? 18:39:23 10° SSE 18:46:33 87° ENE 18:53:44 10° NNW visible
23 Jan ? 20:31:37 10° WSW 20:34:59 14° W 20:38:22 10° WNW visible
24 Jan ? 06:12:01 10° NE 06:16:48 19° E 06:21:33 10° SE visible
24 Jan ? 18:22:37 10° SSE 18:29:40 67° ENE 18:36:45 10° N visible
24 Jan ? 20:12:57 10° SW 20:17:50 20° W 20:22:46 10° NW visible
25 Jan ? 05:56:31 10° ENE 05:59:39 13° E 06:02:45 10° ESE visible
25 Jan ? 18:06:01 10° SE 18:12:51 50° ENE 18:19:40 10° N visible
25 Jan ? 19:54:54 10° SSW 20:00:44 27° W 20:06:36 10° NW visible
26 Jan ? 19:37:15 10° SSW 19:43:41 36° W 19:50:10 10° NNW visible
27 Jan ? 07:07:16 10° NNE 07:14:14 53° E 07:21:10 10° S visible
27 Jan ? 19:19:50 10° S 19:26:40 48° W 19:33:33 10° NNW visible
28 Jan ? 06:50:36 10° NNE 06:57:13 39° E 07:03:49 10° SSE visible
28 Jan ? 19:02:38 10° S 19:09:42 65° WSW 19:16:48 10° NNW visible
29 Jan ? 06:34:06 10° NE 06:40:11 29° E 06:46:14 10° SSE visible
29 Jan ? 18:45:36 10° SSE 18:52:46 85° WSW 18:59:57 10° NNW visible
29 Jan ? 20:39:02 10° WSW 20:41:18 12° W 20:43:35 10° WNW visible
30 Jan ? 06:17:50 10° NE 06:23:06 22° E 06:28:20 10° SE visible
30 Jan ? 18:28:45 10° SSE 18:35:52 75° ENE 18:43:00 10° N visible
30 Jan ? 20:19:47 10° SW 20:24:09 17° W 20:28:32 10° NW visible
